Regional Weather Roundup
Issued by NWS

Home | Current Version | Previous Version | Graphics & Text | Print | Product List | Glossary On
Versions: 1 2 3 4 5 6 7 8 9 10 11 12 13 14 15 16 17 18 19 20 21 22 23 24 25 26 27 28 29 30 31 32 33 34 35 36 37 38 39 40 41 42 43 44 45 46 47 48 49 50
000
ASUS43 KIND 161409
RWRIN

WEATHER ROUNDUP FOR INDIANA
NATIONAL WEATHER SERVICE INDIANAPOLIS IN
1000 AM EDT TUE SEP 16 2014

NOTE: "FAIR" INDICATES FEW OR NO CLOUDS BELOW 12,000 FEET WITH NO
SIGNIFICANT WEATHER AND/OR OBSTRUCTIONS TO VISIBILITY.

* - STATION DOES NOT REPORT WEATHER SUCH AS PRECIPITATION OR FOG.

+ - STATION NOT QUALITY CONTROLLED BY THE NATIONAL WEATHER SERVICE.
    USE DATA WITH CAUTION...ESPECIALLY DEWPOINT AND RELATIVE
    HUMIDITY OBSERVATIONS.

INZ001>003-010>013-019-020-161500-
NORTHWEST INDIANA

CITY           SKY/WX    TMP DP  RH WIND       PRES   REMARKS
GARY /AIRPORT/ MOSUNNY   57  50  77 W6        30.21S
KNOX *+        SUNNY     55  49  80 CALM      30.20S
LA PORTE +     SUNNY     55  49  83 SE3       30.21R
MICHIGAN CITY+ MOSUNNY   55  46  71 CALM      30.21R
MONTICELLO +   MOSUNNY   53  51  93 CALM      30.21R
RENSSELAER +   PTSUNNY   52  52 100 CALM      30.22S
VALPARAISO     MOSUNNY   56  49  77 CALM      30.21R

$$

LMZ046-743>745-161500-
SOUTHERN LAKE MICHIGAN

STATION/POSITION TIME  TEMP WIND        PRES
                       AIR  DIR/SP/G
                 (UTC) (F)  (DEG/KT/KT) (MB)
MICHIGAN CITY    1400   56  160/  4/  5   N/A

$$

INZ004-005-014>016-021>024-161500-
NORTH CENTRAL INDIANA

CITY           SKY/WX    TMP DP  RH WIND       PRES   REMARKS
GOSHEN         SUNNY     56  49  77 E3        30.20S
LOGANSPORT +   PTSUNNY   54  50  87 N5        30.21S
PERU/GRISSOM   PTSUNNY   54  54 100 NE3       30.20R
ROCHESTER +    PTSUNNY   54  54 100 NE5       30.22R
SOUTH BEND     SUNNY     56  48  74 E5        30.21R
WARSAW +       SUNNY     52  50  93 CALM      30.21R

$$

INZ006>009-017-018-025>027-161500-
NORTHEAST INDIANA

CITY           SKY/WX    TMP DP  RH WIND       PRES   REMARKS
ANGOLA *+      MOSUNNY   52  41  66 N3        30.19S
AUBURN +       CLOUDY    54  50  87 NE3       30.21R
FORT WAYNE     PTSUNNY   54  50  86 N9        30.21R
HUNTINGTON +   CLOUDY    52  52 100 N5        30.20R FOG

$$

INZ028-029-035-036-043>045-051>053-161500-
WEST CENTRAL INDIANA

CITY           SKY/WX    TMP DP  RH WIND       PRES   REMARKS
GREENCASTLE +  CLOUDY    54  50  87 N6        30.21S
LAFAYETTE      CLOUDY    55  52  89 NW3       30.21S
TERRE HAUTE    CLOUDY    56  52  86 N3        30.21S

$$

INZ030>032-037>040-046>048-054>057-064-065-161500-
CENTRAL INDIANA

CITY           SKY/WX    TMP DP  RH WIND       PRES   REMARKS
ANDERSON       PTSUNNY   54  54 100 CALM      30.21S FOG
CP ATTERBURY + CLOUDY    55  52  88 NE6       30.21R
COLUMBUS       CLOUDY    54  54 100 NE10      30.20R
FRANKFORT +    MOSUNNY   56  52  86 NE5       30.21S
GREENWOOD *+   CLOUDY    55  52  88 N6        30.21
INDIANAPOLIS   CLOUDY    54  49  83 N8        30.21R
-EAGLE CREEK   CLOUDY    54  48  80 NE5       30.20R
KOKOMO *+      CLOUDY    54  50  87 NE6       30.21R
MARION +       PTSUNNY   54  50  85 NE5       30.20R
MT COMFORT *+  CLOUDY    54  54 100 NE9       30.20S
SHELBYVILLE    CLOUDY    56  52  86 N5        30.20R FOG
ZIONSVILLE +   CLOUDY    56  49  77 CALM      30.21R

$$

INZ033-034-041-042-049-050-058-059-161500-
EAST CENTRAL INDIANA

CITY           SKY/WX    TMP DP  RH WIND       PRES   REMARKS
MUNCIE         PTSUNNY   55  50  83 CALM      30.19S

$$

INZ060-061-067>069-081>083-085>088-161500-
SOUTHWEST INDIANA

CITY           SKY/WX    TMP DP  RH WIND       PRES   REMARKS
EVANSVILLE     CLOUDY    59  55  87 N8        30.19R
WASHINGTON +   CLOUDY    58  55  89 N12       30.19R

$$

INZ062-063-066-070>080-084-089>092-161500-
SOUTH CENTRAL AND SOUTHEAST INDIANA

CITY           SKY/WX    TMP DP  RH WIND       PRES   REMARKS
BLOOMINGTON    CLOUDY    56  51  84 NE7       30.20R
NORTH VERNON + CLOUDY    57  57 100 N3        30.18
SEYMOUR +      CLOUDY    59  55  88 N9        30.18

$$



USA.gov is the U.S. government's official web portal to all federal, state and local government web resources and services.